Location: Songkhla
(7.2000°N, 100.6000°E)
Time: 20:14:57
(UTC+07:00)

Cosmos 1980 - Pass Details

Date: 16 April 2026
Orbit: 838 x 845 km, 71.0° (Epoch: 20 May)

Event Time Altitude Azimuth Distance (km) Brightness Sun altitude
Rises 19:25:59 0° 189° (S) 3,388 6.8 -15.4°
Reaches altitude 10° 19:28:27 10° 186° (S) 2,452 6.0 -16.0°
Maximum altitude 19:34:01 65° 105° (ESE) 918 3.6 -17.3°
Drops below altitude 10° 19:39:34 10° 24° (NNE) 2,445 6.0 -18.7°
Sets 19:42:01 0° 21° (NNE) 3,377 6.8 -19.3°
